Weather History for Kerrville, TX

Change the Weather History Date:

Wednesday, October 26, 2011

  Actual Average (KHDO) Record (KHDO)
Temperature  
Mean Temperature 71 °F -  
Max Temperature 82 °F 77 °F 89 °F (2010)
Min Temperature 60 °F 56 °F 39 °F (1997)
Cooling Degree Days 6    
Growing Degree Days 21 (Base 50)    
Moisture  
Dew Point 56 °F    
Average Humidity 62    
Maximum Humidity 94    
Minimum Humidity 32    
Precipitation  
Precipitation 0.00 in - - ()
Sea Level Pressure  
Sea Level Pressure 29.94 in    
Wind  
Wind Speed 9 mph (SSE)    
Max Wind Speed 16 mph    
Max Gust Speed 23 mph    
Visibility 10 miles    
Events      
Averages and records for this station are not official NWS values.
T = Trace of Precipitation, MM = Missing Value Source: NWS Daily Summary

Daily Weather History Graph

Daily Weather History Graph

Search for Another Location

Airport:

Trip Planner

Search our weather history database for the weather conditions in past years. The results will help you decide how hot, cold, wet, or windy it might be!

Date:

Astronomy

Oct. 26, 2011 Rise Set
Actual Time 7:45 AM CDT 6:54 PM CDT
Civil Twilight 7:21 AM CDT 7:19 PM CDT
Nautical Twilight 6:53 AM CDT 7:47 PM CDT
Astronomical Twilight 6:25 AM CDT 8:14 PM CDT
Moon 7:31 AM CDT (10/26) 6:43 PM CDT (10/26)
Length of Visible Light 11h 57m
Length of Day
11h 09m
Waning Crescent, 0% of the Moon is Illuminated
Oct 26
Waning Crescent
Oct 26
New
Nov 2
First Quarter
Nov 10
Full
Nov 18
Last Quarter

Hourly Weather History & Observations

Time (CDT) Temp. Heat Index Dew Point Humidity Pressure Visibility Wind Dir Wind Speed Gust Speed Precip Events Conditions
12:15 AM 68.0 °F - 59.0 °F 73% 30.02 in 10.0 mi SSE 9.2 mph - N/A   Clear
12:35 AM 68.0 °F - 59.0 °F 73% 30.02 in 10.0 mi SSE 8.1 mph - N/A   Clear
12:55 AM 68.0 °F - 59.0 °F 73% 30.01 in 10.0 mi SSE 10.4 mph - N/A   Clear
1:15 AM 66.2 °F - 59.0 °F 78% 30.00 in 10.0 mi SSE 10.4 mph 17.3 mph N/A   Clear
1:35 AM 64.4 °F - 59.0 °F 83% 30.00 in 10.0 mi SSE 9.2 mph - N/A   Clear
1:55 AM 64.4 °F - 59.0 °F 83% 30.00 in 10.0 mi SSE 10.4 mph - N/A   Clear
2:15 AM 64.4 °F - 59.0 °F 83% 29.99 in 10.0 mi SSE 6.9 mph - N/A   Clear
2:35 AM 64.4 °F - 59.0 °F 83% 29.99 in 10.0 mi SSE 4.6 mph - N/A   Clear
2:55 AM 64.4 °F - 59.0 °F 83% 29.99 in 10.0 mi South 4.6 mph - N/A   Clear
3:15 AM 64.4 °F - 59.0 °F 83% 29.98 in 10.0 mi South 4.6 mph - N/A   Clear
3:35 AM 62.6 °F - 59.0 °F 88% 29.98 in 10.0 mi SSE 5.8 mph - N/A   Clear
3:55 AM 62.6 °F - 59.0 °F 88% 29.97 in 10.0 mi South 5.8 mph - N/A   Clear
4:15 AM 62.6 °F - 57.2 °F 82% 29.97 in 10.0 mi South 6.9 mph - N/A   Clear
4:35 AM 62.6 °F - 59.0 °F 88% 29.96 in 10.0 mi SSE 9.2 mph - N/A   Clear
4:55 AM 62.6 °F - 59.0 °F 88% 29.96 in 10.0 mi SSE 8.1 mph - N/A   Clear
5:15 AM 62.6 °F - 59.0 °F 88% 29.97 in 10.0 mi South 4.6 mph - N/A   Clear
5:35 AM 62.6 °F - 59.0 °F 88% 29.96 in 10.0 mi South 4.6 mph - N/A   Clear
5:55 AM 62.6 °F - 57.2 °F 82% 29.96 in 10.0 mi SSE 4.6 mph - N/A   Clear
6:15 AM 62.6 °F - 57.2 °F 82% 29.96 in 10.0 mi SSE 3.5 mph - N/A   Clear
6:35 AM 60.8 °F - 57.2 °F 88% 29.96 in 10.0 mi SE 4.6 mph - N/A   Clear
7:15 AM 60.8 °F - 57.2 °F 88% 29.96 in 10.0 mi SE 4.6 mph - N/A   Clear
7:35 AM 60.8 °F - 57.2 °F 88% 29.97 in 10.0 mi SE 4.6 mph - N/A   Clear
7:55 AM 60.8 °F - 57.2 °F 88% 29.96 in 10.0 mi SE 5.8 mph - N/A   Clear
8:15 AM 60.8 °F - 59.0 °F 94% 29.96 in 10.0 mi SE 6.9 mph - N/A   Clear
8:35 AM 62.6 °F - 59.0 °F 88% 29.97 in 10.0 mi SE 5.8 mph - N/A   Clear
8:55 AM 62.6 °F - 59.0 °F 88% 29.97 in 10.0 mi SSE 5.8 mph - N/A   Clear
9:35 AM 68.0 °F - 60.8 °F 78% 29.98 in 10.0 mi South 10.4 mph - N/A   Scattered Clouds
9:55 AM 71.6 °F - 60.8 °F 69% 29.98 in 10.0 mi South 10.4 mph - N/A   Scattered Clouds
10:15 AM 71.6 °F - 59.0 °F 64% 29.98 in 10.0 mi South 16.1 mph - N/A   Clear
10:35 AM 71.6 °F - 59.0 °F 64% 29.98 in 10.0 mi South 15.0 mph 20.7 mph N/A   Clear
10:55 AM 73.4 °F - 59.0 °F 61% 29.98 in 10.0 mi South 12.7 mph - N/A   Scattered Clouds
11:15 AM 77.0 °F - 60.8 °F 57% 29.98 in 10.0 mi South 11.5 mph 18.4 mph N/A   Clear
11:35 AM 77.0 °F - 59.0 °F 54% 29.98 in 10.0 mi SSW 11.5 mph 17.3 mph N/A   Scattered Clouds
11:55 AM 77.0 °F - 57.2 °F 50% 29.98 in 10.0 mi SSW 15.0 mph 20.7 mph N/A   Scattered Clouds
12:15 PM 78.8 °F - 59.0 °F 51% 29.97 in 10.0 mi South 13.8 mph 18.4 mph N/A   Scattered Clouds
12:35 PM 78.8 °F - 57.2 °F 47% 29.97 in 10.0 mi South 9.2 mph - N/A   Scattered Clouds
12:55 PM 80.6 °F 80.5 °F 55.4 °F 42% 29.96 in 10.0 mi South 16.1 mph 20.7 mph N/A   Scattered Clouds
1:15 PM 80.6 °F 80.5 °F 55.4 °F 42% 29.95 in 10.0 mi South 15.0 mph 21.9 mph N/A   Scattered Clouds
1:35 PM 80.6 °F 80.3 °F 53.6 °F 39% 29.94 in 10.0 mi South 16.1 mph 20.7 mph N/A   Clear
1:55 PM 80.6 °F 80.3 °F 53.6 °F 39% 29.93 in 10.0 mi SSW 15.0 mph 21.9 mph N/A   Clear
2:15 PM 80.6 °F 80.5 °F 55.4 °F 42% 29.91 in 10.0 mi SSE 16.1 mph 21.9 mph N/A   Scattered Clouds
2:35 PM 82.4 °F 81.4 °F 53.6 °F 37% 29.90 in 10.0 mi South 11.5 mph 19.6 mph N/A   Scattered Clouds
3:15 PM 82.4 °F 81.7 °F 55.4 °F 39% 29.88 in 10.0 mi South 12.7 mph 18.4 mph N/A   Clear
3:35 PM 82.4 °F 81.4 °F 53.6 °F 37% 29.88 in 10.0 mi South 16.1 mph 23.0 mph N/A   Scattered Clouds
3:55 PM 82.4 °F - 51.8 °F 35% 29.87 in 10.0 mi SSE 13.8 mph 20.7 mph N/A   Clear
4:15 PM 82.4 °F - 51.8 °F 35% 29.86 in 10.0 mi South 10.4 mph - N/A   Clear
4:35 PM 82.4 °F - 50.0 °F 32% 29.86 in 10.0 mi South 12.7 mph 17.3 mph N/A   Clear
4:55 PM 82.4 °F - 51.8 °F 35% 29.85 in 10.0 mi SSE 16.1 mph 20.7 mph N/A   Clear
5:15 PM 82.4 °F - 51.8 °F 35% 29.85 in 10.0 mi South 12.7 mph 18.4 mph N/A   Clear
5:35 PM 82.4 °F - 51.8 °F 35% 29.86 in 10.0 mi SSE 12.7 mph - N/A   Clear
5:55 PM 80.6 °F - 51.8 °F 37% 29.85 in 10.0 mi SE 11.5 mph - N/A   Clear
6:15 PM 80.6 °F - 51.8 °F 37% 29.85 in 10.0 mi SSE 12.7 mph - N/A   Clear
6:35 PM 78.8 °F - 51.8 °F 39% 29.85 in 10.0 mi SSE 11.5 mph - N/A   Clear
6:55 PM 78.8 °F - 51.8 °F 39% 29.85 in 10.0 mi SSE 11.5 mph 16.1 mph N/A   Clear
7:15 PM 77.0 °F - 51.8 °F 41% 29.86 in 10.0 mi SE 9.2 mph - N/A   Clear
7:35 PM 77.0 °F - 53.6 °F 44% 29.86 in 10.0 mi SE 6.9 mph - N/A   Clear
7:55 PM 73.4 °F - 53.6 °F 50% 29.86 in 10.0 mi Calm Calm - N/A   Clear
8:15 PM 73.4 °F - 53.6 °F 50% 29.86 in 10.0 mi SE 6.9 mph - N/A   Clear
8:35 PM 71.6 °F - 53.6 °F 53% 29.86 in 10.0 mi SE 5.8 mph - N/A   Clear
8:55 PM 71.6 °F - 53.6 °F 53% 29.86 in 10.0 mi Calm Calm - N/A   Clear
9:15 PM 71.6 °F - 53.6 °F 53% 29.86 in 10.0 mi Calm Calm - N/A   Clear
9:35 PM 71.6 °F - 51.8 °F 50% 29.87 in 10.0 mi Calm Calm - N/A   Clear
9:55 PM 71.6 °F - 51.8 °F 50% 29.87 in 10.0 mi Calm Calm - N/A   Clear
10:15 PM 71.6 °F - 53.6 °F 53% 29.87 in 10.0 mi Calm Calm - N/A   Clear
10:35 PM 68.0 °F - 51.8 °F 56% 29.88 in 10.0 mi Calm Calm - N/A   Clear
10:55 PM 71.6 °F - 55.4 °F 57% 29.87 in 10.0 mi Calm Calm - N/A   Clear
11:15 PM 71.6 °F - 57.2 °F 60% 29.87 in 10.0 mi SSE 10.4 mph - N/A   Clear
11:35 PM 71.6 °F - 57.2 °F 60% 29.87 in 10.0 mi SSE 10.4 mph - N/A   Clear
11:55 PM 68.0 °F - 55.4 °F 64% 29.86 in 10.0 mi SSE 11.5 mph - N/A   Clear